Location: M?digepalle
(16.1753°N, 80.3496°E)
Time: 09:11:03
(UTC+00:00)

GPS 2-15 Rocket1 - Pass Details

Date: 29 October 2020
Orbit: 624 x 675 km, 19.8° (Epoch: 28 November)

Event Time Altitude Azimuth Distance (km) Brightness Sun altitude
Exits shadow 23:05:20 48° 232° (SW) 862 3.4 -22.0°
Maximum altitude 23:06:35 71° 165° (SSE) 701 3.3 -21.7°
Drops below altitude 10° 23:11:30 10° 81° (E) 2,089 6.8 -20.5°
Sets 23:13:55 0° 80° (E) 3,005 7.9 -19.9°
